Location: Guayaquil
(2.1667°S, 79.9000°W)
Time: 01:44:12
(UTC-05:00)

Tiangong - Visible Passes

Search period start: 23 September 2023 00:00
Search period end: 03 October 2023 00:00
Orbit: 374 x 385 km, 41.5° (Epoch: 22 September)

Date Brightness Start Highest point End Pass type
(mag) Time Alt. Az. Time Alt. Az. Time Alt. Az.
24 Sep 0.3 05:39:42 10° N 05:42:10 21° NE 05:44:37 10° E visible
24 Sep 0.8 18:45:32 10° W 18:47:21 14° NW 18:49:10 10° N visible
26 Sep -1.6 05:13:43 15° NNW 05:16:04 56° NE 05:19:08 10° ESE visible
27 Sep 1.1 04:16:10 14° E 04:16:10 14° E 04:17:00 10° E visible
28 Sep -1.1 04:50:38 36° S 04:50:38 36° S 04:52:49 10° SSE visible
